Aérodrome :
LOGIN :

S'inscrire | Disclaimer

   EN    FR    IT 

 










Légende :    VFR   VFR Marginal   IFR   IFR Intensif   IFR Très Intensif
Visi : 
Plafond : 
>= 8 km
>= 3000ft
5 à 8 km
1000 à 3000 ft
1500m à 5 km
500 à 1000 ft
800 à 1500m
200 à 500 ft
< 800m
< 200 ft
Symboles :   Orages  Brouillard  Fortes neiges  Fortes précipitations  Vent > 20 kt
SIGMETs :   Divers  Orages  Givrage  Turbulence  Onde Orograph.  Cendres Volcan.






- Altitude de l'aérodrome : 2059 ft
- Code IATA : KZI


LGKZ - Filippos

DERNIER METAR :
  • 221950Z AUTO 33004KT 310V020 //// // ////// 09/08 Q1018 RE//

METARs EXPIRÉS :
  • 221920Z AUTO 32005KT 300V010 //// // ////// 09/08 Q1017 RE//
  • 221850Z AUTO 36004KT 320V020 //// // ////// 08/08 Q1017 RE//
  • 221820Z AUTO 35004KT 310V020 //// // ////// 09/08 Q1017 RE//
  • 221750Z AUTO 32005KT 310V010 //// // ////// 09/08 Q1017 RE//
  • 221720Z AUTO 33005KT 310V020 //// // ////// 09/08 Q1017 RE//

TAF N/A



MET'MAP, la Météo Aéronautique d'un coup d'oeil ! - Copyright ORBIFLY Décembre 2007 - Disclaimer

ORBIFLY MET'MAP TEAM :

Programmation & Développement : Alexandra Zaïnal
Conception & Développement : Baudouin d'Aumeries
Co-Programmation & Développement : Marc-Olivier Méhu
Soutien technique & logistique : Manuel Goepfert

Contact : metmap@orbifly.com




SOURCES & CREDITS :

   NOAA